[[{"header":{"parameterUnit":"m.s-1","parameterCategory":1,"la1":30.2991,"la2":30.254,"lo1":-89.0895,"lo2":-89.0444,"dy":0.0017,"dx":0.0017,"nx":28,"ny":28,"refTime":"2024-07-12T03:00:00:Z","depth":0,"parameterNumber":2,"parameterNumberName":"U-component_of_WINDS"},"data":[0,0,0,0,0,0,0,0,0,0,0,0,0,0,0,0,0,0,0,0,0,0,0,0,0,0,0,0,0,0,0,0,0,0,0,0,0,0,0,0,0,0,0,0,0,0,0,0,0,0,0,0,0,0,0,0,0,0,1.5889,1.589,0,1.5971,1.5972,1.5972,1.5991,1.5991,1.599,1.599,1.607,1.6073,1.6076,0,0,0,0,0,0,0,0,0,0,0,0,0,1.5747,1.575,1.5889,1.589,1.5891,1.597,1.5972,1.5973,1.5991,1.5991,1.599,1.599,1.607,1.6073,1.6076,0,0,0,0,0,0,0,0,0,0,0,0,0,1.5817,1.575,1.5889,1.591,1.5913,1.597,1.5972,1.5973,1.5992,1.5991,1.599,1.5989,1.6069,1.6072,1.6076,1.6117,0,0,1.6089,1.609,0,0,0,0,0,0,0,0,1.5813,1.5822,1.5906,1.5909,1.5912,1.597,1.5951,1.6021,1.5992,1.5962,1.599,1.5989,1.6038,1.6044,1.6061,1.6121,1.6125,1.6089,1.6091,1.6093,1.6094,0,0,0,0,0,0,0,1.5808,1.5818,1.5921,1.5907,1.5911,1.5915,1.5924,1.5964,1.6003,1.5964,1.5966,1.5975,1.6039,1.6057,1.6063,1.6126,1.6089,1.6092,1.6095,1.6096,1.6222,1.6223,0,0,0,0,0,0,1.58,1.5814,1.5919,1.5924,1.5859,1.5918,1.5928,1.5952,1.6003,1.601,1.5976,1.5976,1.6051,1.6058,1.6066,1.6116,1.6093,1.6097,1.6099,1.6221,1.6222,1.6223,0,0,0,0,0,0,1.5797,1.5809,1.5916,1.587,1.5883,1.5921,1.5948,1.5954,1.5973,1.6012,1.6018,1.5988,1.605,1.606,1.6104,1.6119,1.6099,1.6102,1.622,1.6221,1.6223,1.6218,0,0,0,0,0,0,1.5792,1.5808,1.5825,1.587,1.5886,1.5954,1.5949,1.5957,1.598,1.598,1.6024,1.6031,1.605,1.6098,1.6108,1.6124,1.6105,1.6219,1.622,1.6222,1.6217,1.6219,1.622,0,0,0,0,0,1.5787,1.582,1.5825,1.5838,1.5908,1.5954,1.5963,1.5986,1.5981,1.5997,1.6022,1.6029,1.6116,1.6103,1.6114,1.6132,1.6218,1.622,1.6222,1.6216,1.6218,1.622,0,0,0,0,0,0,1.5774,1.5826,1.5833,1.5881,1.5913,1.5958,1.5979,1.5988,1.6022,1.6021,1.6047,1.6057,1.6099,1.612,1.6104,1.6173,1.6167,1.6171,1.6158,1.6161,1.6162,1.6156,1.6109,0,0,0,0,0,1.5777,1.5812,1.5855,1.5893,1.5909,1.5941,1.5962,1.5977,1.6011,1.6025,1.6053,1.6085,1.6119,1.6141,1.6175,1.622,1.6229,1.6237,1.6239,1.6241,1.6244,1.6267,1.6271,1.623,1.623,1.623,0,0,1.5783,1.5816,1.5836,1.5891,1.5918,1.5952,1.5953,1.5989,1.6014,1.603,1.6073,1.6095,1.6132,1.6176,1.6197,1.6195,1.6257,1.6243,1.6244,1.6247,1.627,1.6274,1.6277,1.6232,1.6231,1.6231,0,0,1.5812,1.584,1.5875,1.5902,1.5942,1.5963,1.5971,1.6014,1.6029,1.6073,1.6086,1.6115,1.6174,1.62,1.622,1.6257,1.6264,1.6267,1.6277,1.63,1.6303,1.6306,1.6318,1.6322,1.6271,1.6271,1.6271,0,1.5814,1.5867,1.5891,1.5927,1.595,1.5967,1.6001,1.6025,1.6074,1.6089,1.6086,1.616,1.6186,1.6236,1.6244,1.6261,1.627,1.6262,1.6301,1.6304,1.6307,1.6319,1.6323,1.6271,1.6271,1.6271,1.6271,0,1.5867,1.5903,1.5926,1.5973,1.5999,1.6033,1.6062,1.6085,1.6097,1.6118,1.6161,1.6193,1.6233,1.6246,1.6259,1.6297,1.6294,1.6296,1.629,1.6311,1.6322,1.6327,1.6271,1.6271,1.6271,1.6271,0,0,1.5889,1.595,1.5957,1.5979,1.6024,1.6052,1.6086,1.6126,1.6145,1.6178,1.6206,1.6255,1.6257,1.628,1.6295,1.6315,1.634,1.6314,1.6315,1.6317,1.6383,1.6381,1.6386,1.6346,1.6346,1.6347,1.638,0,1.5922,1.5986,1.6008,1.606,1.6093,1.6109,1.6138,1.6169,1.6189,1.6219,1.6241,1.6275,1.6275,1.6288,1.6309,1.6333,1.6354,1.6331,1.6371,1.6372,1.636,1.6392,1.639,1.6419,1.6384,1.6385,1.6386,0,1.5969,1.6003,1.6058,1.6099,1.6113,1.614,1.6177,1.6206,1.624,1.6253,1.6279,1.6293,1.6328,1.632,1.6368,1.6352,1.637,1.6383,1.6385,1.6389,1.638,1.6396,1.6429,1.6433,1.6393,1.6392,1.6392,0,1.5979,1.6038,1.6079,1.6096,1.6145,1.6163,1.6184,1.6217,1.6239,1.6271,1.6286,1.6321,1.6341,1.6367,1.639,1.6382,1.6435,1.6429,1.6446,1.6445,1.6456,1.6455,1.6491,1.6469,1.6468,1.6468,1.6468,0,1.6013,1.6045,1.6083,1.6108,1.6145,1.617,1.6205,1.6226,1.6256,1.6284,1.63,1.6325,1.6353,1.6382,1.64,1.6436,1.6445,1.6456,1.646,1.6454,1.6452,1.6465,1.6463,1.647,1.6469,1.6469,1.6469,0,1.6029,1.6056,1.6101,1.6143,1.6154,1.6179,1.6215,1.6238,1.6259,1.6294,1.6304,1.6336,1.6371,1.6396,1.6441,1.6452,1.6491,1.6495,1.6479,1.6481,1.6496,1.6494,1.6542,1.6548,1.6522,1.6522,1.6522,0,1.6049,1.6074,1.6119,1.6139,1.616,1.6193,1.6215,1.6241,1.6263,1.6303,1.6322,1.6358,1.6388,1.6442,1.6469,1.6503,1.6508,1.6522,1.6513,1.6506,1.6507,1.6504,1.6506,1.6523,1.6523,1.6524,1.6524,0,1.608,1.6092,1.6124,1.6161,1.6188,1.6218,1.6248,1.6263,1.6293,1.6317,1.6354,1.6377,1.6423,1.6458,1.6494,1.6514,1.6523,1.6526,1.6532,1.6526,1.6515,1.652,1.6482,1.6525,1.6525,1.6525,1.6525,1.6525,1.6098,1.6121,1.6156,1.6191,1.6216,1.6244,1.6268,1.6292,1.6323,1.6362,1.6375,1.6412,1.6444,1.6494,1.6514,1.6542,1.6541,1.655,1.6551,1.6553,1.6552,1.6511,1.6549,1.6549,1.6549,1.6549,1.6549,0,1.6129,1.6152,1.6184,1.6226,1.6253,1.6261,1.6294,1.6316,1.6349,1.6378,1.6407,1.6448,1.6482,1.6511,1.6545,1.6562,1.6567,1.657,1.6569,1.6573,1.6551,1.6543,1.6566,1.6566,1.6566,1.6566,1.6566,1.6566,1.6148,1.6187,1.6203,1.6254,1.6277,1.6314,1.6332,1.6357,1.638,1.6425,1.6454,1.6473,1.6501,1.6538,1.6569,1.6576,1.6588,1.659,1.6598,1.6577,1.6575,1.6573,1.6565,1.6592,1.6592,1.6618,1.6618,1.6618]},{"header":{"parameterUnit":"m.s-1","parameterCategory":1,"la1":30.2991,"la2":30.254,"lo1":-89.0895,"lo2":-89.0444,"dy":0.0017,"dx":0.0017,"nx":28,"ny":28,"refTime":"2024-07-12T03:00:00:Z","depth":0,"parameterNumber":3,"parameterNumberName":"V-component_of_WINDS"},"data":[0,0,0,0,0,0,0,0,0,0,0,0,0,0,0,0,0,0,0,0,0,0,0,0,0,0,0,0,0,0,0,0,0,0,0,0,0,0,0,0,0,0,0,0,0,0,0,0,0,0,0,0,0,0,0,0,0,0,3.3815,3.3815,0,3.3797,3.3797,3.3797,3.3768,3.3768,3.3767,3.3767,3.3748,3.3748,3.3748,0,0,0,0,0,0,0,0,0,0,0,0,0,3.3826,3.3826,3.3815,3.3815,3.3815,3.3797,3.3797,3.3797,3.3769,3.3768,3.3767,3.3767,3.3748,3.3748,3.3748,0,0,0,0,0,0,0,0,0,0,0,0,0,3.3816,3.3826,3.3815,3.3799,3.3797,3.3797,3.3797,3.3796,3.3769,3.3768,3.3767,3.3766,3.3748,3.3748,3.3748,3.3763,0,0,3.3748,3.3748,0,0,0,0,0,0,0,0,3.3816,3.3815,3.3801,3.38,3.3798,3.3784,3.3794,3.3785,3.3769,3.3779,3.3767,3.3766,3.3761,3.376,3.3758,3.3762,3.3761,3.3748,3.3748,3.3748,3.3748,0,0,0,0,0,0,0,3.3817,3.3816,3.3808,3.3801,3.3799,3.3792,3.379,3.3792,3.3775,3.3778,3.3776,3.3775,3.376,3.3758,3.3757,3.3761,3.3748,3.3748,3.3748,3.3748,3.3776,3.3777,0,0,0,0,0,0,3.382,3.3817,3.3809,3.3807,3.3806,3.3793,3.379,3.3789,3.3774,3.3771,3.3775,3.3773,3.3759,3.3757,3.3757,3.3772,3.3748,3.3748,3.3748,3.3776,3.3777,3.3777,0,0,0,0,0,0,3.3821,3.382,3.3809,3.3812,3.381,3.3793,3.3793,3.3789,3.3788,3.3772,3.3769,3.3777,3.3758,3.3757,3.3762,3.3771,3.3748,3.3748,3.3775,3.3776,3.3777,3.3805,0,0,0,0,0,0,3.3821,3.382,3.3826,3.3812,3.381,3.3815,3.3793,3.379,3.3788,3.3785,3.3773,3.377,3.3757,3.3762,3.3762,3.3771,3.3748,3.3774,3.3775,3.3777,3.3803,3.3807,3.381,0,0,0,0,0,3.3822,3.3834,3.3826,3.3825,3.3816,3.3815,3.3814,3.3799,3.3789,3.3794,3.3784,3.377,3.3771,3.3763,3.3762,3.3771,3.3773,3.3775,3.3777,3.3801,3.3806,3.381,0,0,0,0,0,0,3.3849,3.3832,3.3823,3.3831,3.3825,3.3811,3.3817,3.3805,3.3801,3.3799,3.3781,3.3778,3.3786,3.3779,3.377,3.3785,3.377,3.3771,3.3789,3.3793,3.3796,3.3797,3.3748,0,0,0,0,0,3.3856,3.3857,3.3842,3.3851,3.3848,3.3833,3.3832,3.3822,3.3814,3.3811,3.3802,3.3795,3.3794,3.3793,3.3791,3.3802,3.3799,3.3809,3.3812,3.3815,3.3816,3.3821,3.3825,3.3783,3.3783,3.3783,0,0,3.3871,3.3861,3.3863,3.3856,3.385,3.3851,3.3831,3.3833,3.3834,3.3812,3.3815,3.3809,3.38,3.3808,3.3811,3.3803,3.3828,3.3817,3.382,3.3819,3.3823,3.3827,3.3831,3.3784,3.3784,3.3784,0,0,3.3897,3.3891,3.3897,3.3892,3.3883,3.3873,3.3874,3.3862,3.3856,3.386,3.3843,3.3844,3.3842,3.3837,3.3834,3.3859,3.3846,3.3859,3.3877,3.3882,3.3886,3.3888,3.3897,3.39,3.3861,3.3861,3.3861,0,3.3916,3.3917,3.3902,3.3905,3.3902,3.3883,3.3889,3.3885,3.3876,3.3874,3.3866,3.3863,3.3856,3.3862,3.3868,3.3867,3.3868,3.386,3.3886,3.3889,3.3891,3.3899,3.3902,3.3863,3.3862,3.3862,3.3862,0,3.3941,3.3942,3.3948,3.394,3.3938,3.3943,3.3928,3.3928,3.3918,3.3909,3.3913,3.3904,3.39,3.3901,3.3891,3.3906,3.3901,3.389,3.3874,3.3897,3.3904,3.3907,3.3865,3.3864,3.3864,3.3863,0,0,3.3983,3.3967,3.3969,3.3965,3.3954,3.3954,3.3959,3.3954,3.3954,3.3949,3.3952,3.3951,3.3941,3.3937,3.3927,3.3931,3.3951,3.3919,3.3919,3.3925,3.3966,3.3974,3.3977,3.3943,3.3944,3.3944,3.3966,0,3.4006,3.4012,3.3999,3.4007,3.4008,3.399,3.3994,3.3987,3.3979,3.3979,3.397,3.3969,3.3956,3.3954,3.3958,3.3948,3.3959,3.3946,3.3945,3.3945,3.3946,3.3981,3.3989,3.401,3.3969,3.397,3.397,0,3.4034,3.403,3.4039,3.4028,3.4027,3.4031,3.4026,3.4026,3.4018,3.4012,3.4009,3.3997,3.4,3.3986,3.3989,3.3981,3.398,3.3975,3.3976,3.3974,3.3958,3.3979,3.4017,3.402,3.3974,3.3974,3.3973,0,3.4063,3.406,3.4065,3.4062,3.4049,3.4052,3.4047,3.4038,3.4037,3.4033,3.4032,3.4028,3.4026,3.4024,3.4011,3.4002,3.4016,3.4001,3.401,3.4011,3.4013,3.4013,3.405,3.4014,3.4014,3.4014,3.4014,0,3.4089,3.4095,3.4077,3.408,3.4086,3.4071,3.4078,3.4071,3.4064,3.4065,3.405,3.4052,3.4035,3.4035,3.4025,3.4029,3.4029,3.4023,3.402,3.4024,3.4025,3.4022,3.402,3.4015,3.4015,3.4015,3.4015,0,3.4122,3.411,3.4114,3.4102,3.4099,3.4104,3.4093,3.4095,3.4087,3.4088,3.4088,3.4074,3.4073,3.4061,3.4057,3.405,3.4058,3.4053,3.406,3.4058,3.4068,3.4067,3.4104,3.4108,3.4071,3.4071,3.4072,0,3.4139,3.4143,3.4131,3.4131,3.4127,3.4126,3.4125,3.4111,3.411,3.4102,3.4105,3.4103,3.41,3.4099,3.4089,3.4085,3.4079,3.4093,3.4079,3.4082,3.4078,3.4078,3.4078,3.4095,3.4096,3.4096,3.4096,0,3.417,3.4165,3.4163,3.4159,3.4157,3.4154,3.4149,3.415,3.4135,3.4134,3.4133,3.4131,3.4127,3.4125,3.412,3.4114,3.4103,3.4101,3.4103,3.4106,3.411,3.4107,3.4067,3.41,3.41,3.4099,3.4099,3.4099,3.4195,3.4197,3.419,3.4188,3.4184,3.418,3.4181,3.4173,3.4172,3.4167,3.4159,3.4159,3.4152,3.4144,3.414,3.414,3.4133,3.4136,3.4136,3.4137,3.4138,3.4111,3.4139,3.4139,3.4139,3.4139,3.4139,0,3.4225,3.4219,3.4218,3.4212,3.4211,3.4201,3.4195,3.4195,3.4195,3.419,3.4187,3.4186,3.4184,3.4174,3.417,3.4172,3.4167,3.4172,3.4171,3.4169,3.4145,3.4144,3.4176,3.4176,3.4176,3.4176,3.4176,3.4176,3.424,3.4244,3.4237,3.4239,3.4233,3.4233,3.423,3.4227,3.4222,3.4221,3.4219,3.4213,3.4206,3.4202,3.4199,3.4197,3.4196,3.4202,3.4197,3.4175,3.4171,3.4168,3.4166,3.4202,3.4202,3.4221,3.4222,3.4222]}]]